Total_Precipitation_Accumulation
0.00 0.00 0.00 0.00 0.00 0.00 0.01 0.03 0.09 0.17 0.18 0.15 0.19 0.23 0.21 0.24 0.34 0.66 0.31 0.14 0.05 0.02 0.01 0.01 0.02 0.03 0.04 0.03 0.03 0.05 0.08 0.12 0.14 0.13 0.11 0.09 0.09 0.09 0.10 0.11 0.14 0.20 0.23 0.22 0.20 0.19 0.20 0.20 0.15
0.00 0.00 0.00 0.00 0.00 0.00 0.02 0.04 0.09 0.13 0.17 0.17 0.20 0.21 0.20 0.17 0.11 0.09 0.08 0.07 0.05 0.02 0.01 0.01 0.01 0.03 0.05 0.05 0.05 0.05 0.08 0.12 0.17 0.18 0.16 0.14 0.11 0.10 0.12 0.12 0.14 0.19 0.22 0.19 0.16 0.13 0.12 0.10 0.07
0.00 0.00 0.00 0.00 0.00 0.00 0.04 0.07 0.08 0.10 0.14 0.16 0.22 0.24 0.27 0.21 0.11 0.10 0.09 0.08 0.05 0.03 0.02 0.01 0.01 0.03 0.06 0.07 0.07 0.09 0.11 0.16 0.20 0.24 0.24 0.19 0.12 0.11 0.14 0.16 0.16 0.18 0.21 0.22 0.17 0.12 0.08 0.05 0.05
0.00 0.00 0.00 0.00 0.00 0.00 0.03 0.06 0.06 0.10 0.14 0.14 0.16 0.23 0.23 0.18 0.12 0.11 0.10 0.08 0.04 0.03 0.02 0.01 0.02 0.03 0.06 0.08 0.10 0.12 0.15 0.19 0.25 0.29 0.28 0.20 0.14 0.12 0.16 0.20 0.22 0.23 0.25 0.29 0.24 0.22 0.14 0.09 0.06
0.00 0.00 0.00 0.00 0.00 0.00 0.01 0.04 0.05 0.08 0.10 0.11 0.15 0.23 0.25 0.18 0.13 0.12 0.11 0.10 0.06 0.04 0.02 0.01 0.03 0.04 0.07 0.09 0.10 0.13 0.17 0.21 0.27 0.32 0.28 0.20 0.15 0.13 0.16 0.22 0.24 0.27 0.29 0.28 0.23 0.21 0.15 0.13 0.12
0.00 0.00 0.00 0.00 0.00 0.00 0.01 0.02 0.03 0.06 0.10 0.09 0.15 0.27 0.31 0.20 0.17 0.16 0.17 0.15 0.09 0.07 0.04 0.02 0.03 0.04 0.11 0.17 0.13 0.12 0.15 0.20 0.26 0.30 0.27 0.20 0.16 0.18 0.22 0.23 0.26 0.28 0.25 0.20 0.18 0.16 0.14 0.16 0.19
0.00 0.00 0.00 0.00 0.00 0.00 0.01 0.02 0.03 0.06 0.11 0.11 0.13 0.27 0.38 0.32 0.26 0.25 0.23 0.22 0.14 0.15 0.11 0.05 0.04 0.03 0.07 0.10 0.10 0.11 0.12 0.17 0.22 0.27 0.30 0.24 0.19 0.26 0.30 0.28 0.29 0.31 0.25 0.19 0.18 0.18 0.15 0.20 0.25
0.00 0.00 0.00 0.00 0.01 0.00 0.01 0.02 0.02 0.05 0.11 0.12 0.10 0.19 0.38 0.49 0.42 0.40 0.33 0.34 0.31 0.37 0.45 0.22 0.13 0.06 0.04 0.04 0.06 0.08 0.10 0.13 0.16 0.17 0.19 0.18 0.20 0.24 0.26 0.23 0.22 0.23 0.17 0.12 0.12 0.13 0.13 0.11 0.09
0.00 0.00 0.00 0.00 0.01 0.01 0.01 0.02 0.03 0.05 0.09 0.09 0.08 0.13 0.29 0.36 0.38 0.48 0.44 0.50 0.55 0.69 0.83 0.60 0.26 0.10 0.07 0.06 0.05 0.07 0.06 0.10 0.09 0.08 0.11 0.14 0.24 0.30 0.28 0.18 0.15 0.11 0.07 0.05 0.04 0.03 0.02 0.01 0.01
0.00 0.00 0.00 0.00 0.00 0.01 0.01 0.01 0.03 0.03 0.05 0.06 0.09 0.12 0.17 0.22 0.32 0.47 0.59 0.96 0.98 0.86 0.82 0.62 0.26 0.18 0.16 0.12 0.10 0.10 0.08 0.09 0.09 0.14 0.12 0.20 0.41 0.46 0.32 0.27 0.15 0.08 0.06 0.04 0.04 0.03 0.03 0.02 0.03
0.00 0.00 0.00 0.00 0.00 0.00 0.01 0.01 0.03 0.03 0.04 0.05 0.11 0.19 0.19 0.18 0.25 0.33 0.50 1.02 1.21 0.83 0.58 0.36 0.32 0.35 0.33 0.25 0.25 0.26 0.24 0.26 0.26 0.30 0.27 0.38 0.44 0.32 0.24 0.27 0.20 0.14 0.11 0.12 0.12 0.07 0.05 0.05 0.07
0.00 0.00 0.00 0.00 0.00 0.00 0.01 0.01 0.02 0.03 0.03 0.06 0.13 0.26 0.34 0.26 0.23 0.34 0.56 0.74 0.80 0.73 0.57 0.47 0.45 0.43 0.48 0.54 0.54 0.63 0.60 0.48 0.41 0.45 0.40 0.51 0.61 0.49 0.46 0.47 0.37 0.35 0.32 0.32 0.24 0.17 0.14 0.12 0.11
0.00 0.00 0.00 0.00 0.00 0.00 0.00 0.01 0.01 0.02 0.03 0.05 0.10 0.25 0.32 0.32 0.36 0.43 0.64 0.89 0.92 0.92 0.81 0.63 0.62 0.57 0.57 0.74 0.74 0.69 0.72 0.61 0.51 0.51 0.52 0.58 0.61 0.59 0.62 0.56 0.58 0.48 0.45 0.41 0.34 0.25 0.25 0.24 0.23
0.00 0.00 0.00 0.00 0.00 0.00 0.00 0.01 0.01 0.02 0.03 0.04 0.08 0.19 0.24 0.27 0.46 0.58 0.78 1.07 1.18 1.25 1.09 0.76 0.67 0.61 0.58 0.60 0.61 0.63 0.60 0.61 0.64 0.67 0.61 0.58 0.66 0.83 0.86 0.77 0.70 0.56 0.52 0.54 0.53 0.46 0.41 0.36 0.36
0.00 0.00 0.00 0.00 0.00 0.00 0.00 0.01 0.02 0.02 0.03 0.05 0.09 0.18 0.27 0.32 0.41 0.56 0.75 1.11 1.35 1.56 1.48 1.06 0.73 0.79 0.79 0.68 0.57 0.55 0.57 0.67 0.70 0.88 0.91 0.76 0.69 0.84 0.92 0.97 0.87 0.73 0.63 0.64 0.60 0.58 0.54 0.52 0.52
0.00 0.00 0.00 0.00 0.00 0.00 0.00 0.02 0.03 0.04 0.04 0.06 0.11 0.17 0.26 0.34 0.39 0.49 0.73 1.15 1.71 2.05 1.85 1.29 0.85 0.95 1.02 0.96 0.85 0.79 0.77 0.79 0.80 0.86 0.97 0.97 0.94 0.95 1.03 1.07 0.99 0.88 0.81 0.89 0.90 0.87 0.81 0.77 0.73
0.00 0.00 0.00 0.00 0.00 0.00 0.01 0.03 0.04 0.04 0.05 0.08 0.12 0.18 0.23 0.29 0.37 0.49 0.78 1.24 1.96 2.64 2.33 1.61 1.24 1.25 1.27 1.26 1.30 1.39 1.43 1.34 1.25 1.18 1.15 1.13 1.19 1.18 1.21 1.28 1.27 1.18 1.20 1.16 1.03 1.08 1.10 1.09 1.00
0.00 0.00 0.00 0.01 0.00 0.00 0.01 0.04 0.04 0.05 0.07 0.09 0.14 0.21 0.20 0.27 0.38 0.56 0.95 1.56 2.25 2.96 2.71 2.19 1.81 1.73 1.64 1.56 1.62 1.73 1.79 1.79 1.79 1.76 1.68 1.56 1.53 1.59 1.68 1.75 1.74 1.63 1.59 1.52 1.48 1.42 1.19 1.02 0.92
0.00 0.00 0.01 0.00 0.01 0.01 0.03 0.05 0.08 0.09 0.10 0.13 0.17 0.20 0.22 0.28 0.40 0.71 1.17 1.73 2.09 2.27 2.27 2.30 2.21 2.11 2.00 1.94 1.93 2.08 2.27 2.33 2.29 2.27 2.17 2.12 2.14 2.22 2.33 2.29 2.22 2.00 1.87 1.77 1.64 1.44 1.23 1.03 0.91
0.00 0.00 0.01 0.01 0.02 0.03 0.05 0.09 0.13 0.14 0.15 0.20 0.28 0.30 0.29 0.34 0.46 0.79 1.14 1.49 1.79 2.05 2.22 2.28 2.18 2.30 2.47 2.67 2.90 3.11 3.30 3.27 3.16 3.08 2.99 2.88 2.81 2.72 2.64 2.53 2.36 2.17 2.02 1.79 1.61 1.48 1.36 1.21 1.05
0.00 0.00 0.01 0.03 0.04 0.06 0.08 0.16 0.19 0.20 0.23 0.24 0.27 0.34 0.35 0.37 0.49 0.76 0.93 1.11 1.41 1.78 2.02 2.16 2.35 2.74 3.16 3.60 4.14 4.47 4.30 4.02 3.89 3.62 3.50 3.31 3.06 2.92 2.82 2.55 2.35 2.16 1.98 1.84 1.66 1.50 1.40 1.24 1.07
0.01 0.01 0.01 0.02 0.03 0.08 0.09 0.20 0.29 0.31 0.32 0.32 0.34 0.35 0.35 0.36 0.41 0.60 0.82 0.99 1.22 1.61 1.97 2.25 2.61 3.10 3.67 4.11 4.54 4.81 4.82 4.58 4.35 3.90 3.53 3.12 2.79 2.62 2.48 2.28 2.07 1.94 1.80 1.64 1.51 1.44 1.33 1.17 0.99
0.01 0.02 0.01 0.01 0.02 0.05 0.09 0.20 0.40 0.45 0.38 0.36 0.34 0.31 0.28 0.30 0.34 0.44 0.59 0.80 1.07 1.44 1.84 2.20 2.55 3.10 3.61 4.08 4.42 4.66 4.75 4.60 4.25 3.65 3.12 2.75 2.46 2.26 2.05 1.83 1.68 1.57 1.44 1.28 1.11 1.02 0.94 0.85 0.72
0.00 0.01 0.02 0.03 0.04 0.07 0.07 0.17 0.46 0.65 0.52 0.37 0.33 0.31 0.29 0.28 0.31 0.41 0.54 0.69 0.95 1.23 1.56 1.90 2.24 2.88 3.48 3.95 4.31 4.59 4.58 4.28 3.75 3.16 2.69 2.42 2.21 2.02 1.81 1.62 1.40 1.25 1.10 0.91 0.75 0.67 0.62 0.58 0.53
0.00 0.02 0.08 0.10 0.10 0.10 0.08 0.21 0.52 0.63 0.55 0.44 0.36 0.33 0.30 0.27 0.29 0.36 0.50 0.63 0.89 1.15 1.43 1.79 2.11 2.52 2.98 3.33 3.50 3.64 3.68 3.50 3.23 2.87 2.48 2.16 1.95 1.75 1.54 1.27 1.05 0.88 0.78 0.68 0.58 0.50 0.44 0.40 0.36
0.01 0.03 0.09 0.13 0.12 0.12 0.21 0.42 0.62 0.59 0.56 0.48 0.37 0.30 0.28 0.27 0.30 0.37 0.51 0.64 0.78 0.98 1.25 1.61 1.88 2.12 2.33 2.47 2.61 2.58 2.53 2.43 2.30 2.05 1.76 1.52 1.31 1.15 0.98 0.78 0.68 0.60 0.53 0.47 0.42 0.38 0.33 0.30 0.28
0.01 0.02 0.03 0.06 0.07 0.16 0.40 0.59 0.80 0.73 0.69 0.52 0.40 0.33 0.32 0.34 0.36 0.44 0.55 0.64 0.74 0.87 1.05 1.22 1.36 1.52 1.57 1.52 1.50 1.55 1.55 1.49 1.37 1.21 1.02 0.86 0.70 0.59 0.52 0.44 0.39 0.34 0.33 0.31 0.30 0.29 0.28 0.27 0.26
0.02 0.02 0.04 0.09 0.13 0.23 0.39 0.66 0.95 1.00 0.91 0.70 0.53 0.44 0.40 0.40 0.44 0.50 0.59 0.63 0.69 0.76 0.91 0.95 0.95 0.95 1.00 1.05 1.04 1.00 0.99 0.97 0.93 0.87 0.80 0.70 0.57 0.46 0.38 0.34 0.33 0.30 0.28 0.27 0.27 0.27 0.26 0.26 0.25
0.05 0.05 0.05 0.10 0.13 0.25 0.48 0.86 1.02 1.15 1.06 0.92 0.79 0.62 0.53 0.50 0.55 0.61 0.62 0.59 0.59 0.62 0.66 0.69 0.70 0.70 0.71 0.76 0.78 0.76 0.69 0.64 0.63 0.63 0.60 0.55 0.48 0.40 0.34 0.29 0.27 0.26 0.24 0.24 0.24 0.23 0.21 0.20 0.18
0.05 0.06 0.08 0.15 0.20 0.24 0.48 1.09 1.11 1.34 1.29 1.10 0.94 0.74 0.68 0.64 0.63 0.63 0.59 0.55 0.54 0.57 0.60 0.59 0.62 0.62 0.63 0.61 0.60 0.58 0.51 0.46 0.45 0.45 0.44 0.41 0.39 0.36 0.34 0.32 0.31 0.27 0.23 0.21 0.21 0.20 0.18 0.17 0.16